Regional Weather Roundup
Issued by NWS

Home | Current Version | Previous Version | Text Only | Print | Product List | Glossary Off
Versions: 1 2 3 4 5 6 7 8 9 10 11 12 13 14 15 16 17 18 19 20 21 22 23 24 25 26 27 28 29 30 31 32 33 34 35 36 37 38 39 40 41 42 43 44 45 46 47 48 49 50

000
ASUS43 KMKX 280121
RWRWI

WISCONSIN REGIONAL WEATHER ROUNDUP
NATIONAL WEATHER SERVICE MILWAUKEE/SULLIVAN WI
800 PM CDT SUN JUL 27 2014

NOTE: "FAIR" INDICATES FEW OR NO CLOUDS BELOW 12,000 FEET WITH NO
SIGNIFICANT WEATHER AND/OR OBSTRUCTIONS TO VISIBILITY.

WIZ001-002-006>008-014>016-023>028-280200-
NORTHWEST WISCONSIN

CITY           SKY/WX    TMP DP  RH WIND       PRES   REMARKS
SUPERIOR ARPT  CLOUDY    61  55  79 SW3       30.07R
ASHLAND        CLEAR     60  53  77 W3        30.05S
HAYWARD        CLOUDY    61  53  75 VRB3      30.06R
SIREN          CLOUDY    64  53  68 NE5       30.07S
RICE LAKE      CLEAR     64  50  61 N14       30.06R
LADYSMITH      CLEAR     62  52  70 N9        30.05R
EAU CLAIRE     PTCLDY    64  53  67 N9        30.02R
MENOMONIE      CLEAR     66  54  66 N9        30.03R
NEW RICHMOND   CLOUDY    64  54  69 NE10G16   30.06R
OSCEOLA        CLOUDY    65  57  76 NE9       30.09R
$$

WIZ003>005-009-010-017-018-280200-
NORTH CENTRAL WISCONSIN

CITY           SKY/WX    TMP DP  RH WIND       PRES   REMARKS
WOODRUFF       CLEAR     62  53  72 N9        30.02R
RHINELANDER    CLEAR     58  50  75 VRB5      30.01R
EAGLE RIVER    CLOUDY    60  49  67 N9        30.00R
LAND O LAKES   CLOUDY    60  49  66 N12G18    30.02R
PHILLIPS       CLEAR     59  51  73 N6        30.02R
TOMAHAWK       CLEAR     59  51  76 N6        30.01R
MEDFORD        MOCLDY    60  54  79 N10G16    30.01R
MERRILL        CLEAR     60  53  77 N8        29.99R
$$

WIZ029-030-035-036-043>047-280200-
CENTRAL WISCONSIN

CITY           SKY/WX    TMP DP  RH WIND       PRES   REMARKS
WAUSAU         PTCLDY    63  54  72 N8G18     29.96R
MOSINEE        MOCLDY    63  54  72 N18       29.98R
MARSHFIELD     MOCLDY    65  55  70 N15G23    29.98R
STEVENS POINT  MOCLDY    62  55  77 N10       29.96R
WAUPACA        CLEAR     67  59  77 N13       29.92R
WAUTOMA        CLOUDY    68  59  73 N6        29.92R
WISC RAPIDS    CLOUDY    67  57  70 MISG      29.97R
CAMP DOUGLAS   PTCLDY    65  63  91 NW7       29.94R
$$

WIZ011>013-019>022-031-037>040-048>050-280200-
NORTHEAST WISCONSIN

CITY           SKY/WX    TMP DP  RH WIND       PRES   REMARKS
ANTIGO         PTCLDY    59  52  77 N10G16    29.97R
STURGEON BAY   CLOUDY    63  52  67 N17G24    29.89R
GREEN BAY      MOCLDY    65  55  70 N16       29.89R
MANITOWOC      CLOUDY    64  57  78 N12G22    29.86R
APPLETON       MOCLDY    64  54  68 N17G24    29.90R
CLINTONVILLE   PTCLDY    63  54  72 N10G18    29.93R
OSHKOSH        PTCLDY    67  56  67 N21       29.88R
$$

WIZ032>034-041-042-053>061-280200-
SOUTHWEST WISCONSIN

CITY           SKY/WX    TMP DP  RH WIND       PRES   REMARKS
LA CROSSE      CLEAR     73  58  59 N12       29.94R
SPARTA         PTCLDY    67  57  68 N5        29.95R
VIROQUA        MOCLDY    69  60  71 NW8G16    29.95R
BOSCOBEL       CLOUDY    68  62  81 N6        29.93R
PRAIRIE DU CHI PTCLDY    70  59  67 NW9       29.93R
PLATTEVILLE    MOCLDY    72  59  63 NW13      29.93R
$$

WIZ056-057-062-063-064-067-068-280200-
SOUTH CENTRAL WISCONSIN

CITY           SKY/WX    TMP DP  RH WIND       PRES   REMARKS
BARABOO/DELLS  CLEAR     66  59  77 NW6       29.91R
LONE ROCK      PTCLDY    74  59  59 NW12      29.91R
WATERTOWN      PTCLDY    68  59  73 N13G20    29.86R
MADISON        MOCLDY    69  61  75 N6        29.89R
MIDDLETON      FAIR      69  60  72 N8        29.90R
MONROE         MOCLDY    70  59  68 NW12G23   29.90R
JANESVILLE     PTCLDY    72  59  64 NW13      29.85R
$$

WIZ051-052-058>065-066-070>072-280200-
SOUTHEAST WISCONSIN

CITY           SKY/WX    TMP DP  RH WIND       PRES   REMARKS
MILWAUKEE      MOCLDY    64  59  83 N15G22    29.84R
WAUKESHA       NOT AVBL
MILWAUKEE/TIMM MOCLDY    66  59  77 NW10      29.84R
RACINE         MOCLDY    66  59  78 NE14      29.85R
BURLINGTON     MOCLDY    65  60  85 NW9       29.84R
KENOSHA        MOCLDY    65  63  93 NW7       29.83R
FOND DU LAC    MOCLDY    65  58  78 N13G26    29.89R
SHEBOYGAN      CLOUDY    65  59  81 N12       29.85R
WEST BEND      PTCLDY    64  55  72 N6        29.85R
JUNEAU         RAIN      67  57  71 N10G18    29.88R
$$

LSZ147-162-280200-
LAKE SUPERIOR

STATION/POSITION TIME  TEMP    WIND        PRES    WAVE
                       AIR SEA DIR/SP/G            HT/PER
                 (UTC) (F)     (DEG/KT/KT) (MB)    (FT/S)
W MID LAKE BUOY  0050   51 43  310/  8/  8 1017.0R   1/ 4
PORT WING        0000   58     250/  5/  9 1017.6R
SAXON HARBOR     0000             CALM     1016.9S
$$

LMZ867-665-643>646-280200-
LAKE MICHIGAN

STATION/POSITION TIME  TEMP    WIND        PRES    WAVE
                       AIR SEA DIR/SP/G            HT/PER
                 (UTC) (F)     (DEG/KT/KT) (MB)    (FT/S)
N MID LAKE BUOY  0050   59 55  340/ 16/ 17 1009.4R   3/ 4
NORTHPORT PIER   0000   63     350/ 22/ 29 1010.2R
KEWAUNEE LAKESHO 0100   63     350/ 11/ 19 1012.0R
SHEBOYGAN LAKESH 0100   60     350/ 17/ 19 1010.8R
PORT WASHINGTON  0000           40/  6/ 17 1010.2
ATWATER BUOY     0100   62      20/ 16     1011.4R
MILWAUKEE LAKESH 0100   62      10/ 13/ 16   N/A
S MID LAKE BUOY  0050   63 62  320/ 16/ 19 1008.7R   2/ 4
KENOSHA   LAKESH 0100   67     360/ 11/ 17 1009.8R
$$

TC  - TEMPERATURE IN CELSIUS
VSB - VISIBILITY IN STATUTE MILES
WCI - WIND CHILL INDEX
HX  - HEAT INDEX




USA.gov is the U.S. government's official web portal to all federal, state and local government web resources and services.